Location: Newark
(34.0131°N, 4.3314°W)
Time: 22:22:29
(UTC+00:00)

Explorer 7 - Pass Details

Date: 19 October 2019
Orbit: 485 x 680 km, 50.3° (Epoch: 13 November)

Event Time Altitude Azimuth Distance (km) Brightness Sun altitude
Rises 16:36:16 0° 323° (NW) 2,602 10.5 11.6°
Reaches altitude 10° 16:39:15 10° 349° (NNW) 1,748 9.3 11.1°
Maximum altitude 16:41:32 15° 24° (NNE) 1,499 8.7 10.6°
Drops below altitude 10° 16:43:53 10° 59° (ENE) 1,805 8.9 10.2°
Sets 16:47:03 0° 84° (E) 2,745 9.7 9.5°
